CW5988 Weather Reports


time (UTC)temp
F
wind
direction
speed
knots
gust
knots
rain 1hr
in
rain 24hr
in
rain mn
in
humidity
%
barometer
mb
20260905193932 69 17 3.5 10.4 0.00 0.00 0.00 68 1015.2
20260905193440 68 248 6.1 10.4 0.00 0.00 0.00 68 1015.2
20260905192924 69 277 6.1 10.4 0.00 0.00 0.00 67 1015.3
20260905192429 69 322 6.1 10.4 0.00 0.00 0.00 67 1015.2
20260905191917 68 206 4.3 9.6 0.00 0.00 0.00 68 1015.3
20260905191440 68 264 6.1 10.4 0.00 0.00 0.00 68 1015.3
20260905190927 69 233 7.0 12.2 0.00 0.00 0.00 69 1015.2
20260905190436 68 224 4.3 12.2 0.00 0.00 0.00 69 1015.4
20260905185932 69 304 7.0 12.2 0.00 0.00 0.00 69 1015.3
20260905185418 69 280 7.0 12.2 0.00 0.00 0.00 68 1015.3
20260905184923 69 264 6.1 11.3 0.00 0.00 0.00 68 1015.2
20260905184431 69 247 4.3 9.6 0.00 0.00 0.00 68 1015.1
20260905183935 69 263 6.1 8.7 0.00 0.00 0.00 67 1015.2
20260905183449 70 245 4.3 8.7 0.00 0.00 0.00 68 1015.2
20260905182933 70 240 3.5 8.7 0.00 0.00 0.00 68 1015.3
20260905182418 70 294 3.5 7.8 0.00 0.00 0.00 68 1015.2
20260905181923 69 277 2.6 7.8 0.00 0.00 0.00 69 1015.3
20260905181431 69 14 2.6 5.2 0.00 0.00 0.00 69 1015.3
20260905180937 69 259 2.6 7.0 0.00 0.00 0.00 69 1015.3
20260905180422 69 299 3.5 7.0 0.00 0.00 0.00 69 1015.3
20260905175941 69 1 0.9 6.1 0.00 0.00 0.00 70 1015.2
20260905175426 68 147 2.6 6.1 0.00 0.00 0.00 70 1015.2
20260905174933 68 323 2.6 6.1 0.00 0.00 0.00 70 1015.1
20260905174418 68 259 1.7 3.5 0.00 0.00 0.00 71 1015.2
20260905173921 67 339 1.7 4.3 0.00 0.00 0.00 72 1015.1
20260905173424 66 333 1.7 5.2 0.00 0.00 0.00 72 1015.1
20260905172921 66 308 3.5 5.2 0.00 0.00 0.00 71 1015.1
20260905172426 67 360 1.7 5.2 0.00 0.00 0.00 72 1015.1
20260905171930 66 276 3.5 6.1 0.00 0.00 0.00 72 1014.9
20260905171436 67 329 2.6 6.1 0.00 0.00 0.00 72 1015.0
20260905170942 66 151 2.6 6.1 0.00 0.00 0.00 72 1015.0
20260905170429 67 249 3.5 5.2 0.00 0.00 0.00 72 1014.9
20260905165934 67 257 2.6 4.3 0.00 0.00 0.00 72 1014.9
20260905165434 67 151 1.7 3.5 0.00 0.00 0.00 72 1014.8
20260905164919 66 95 2.6 3.5 0.00 0.00 0.00 73 1014.8
20260905164424 66 88 1.7 3.5 0.00 0.00 0.00 73 1014.8
20260905163930 65 352 1.7 3.5 0.00 0.00 0.00 74 1014.8
20260905163435 65 151 1.7 4.3 0.00 0.00 0.00 75 1014.7
20260905162920 64 151 1.7 4.3 0.00 0.00 0.00 75 1014.7
20260905162428 64 207 0.9 3.5 0.00 0.00 0.00 76 1014.7
20260905161932 64 202 1.7 3.5 0.00 0.00 0.00 76 1014.6
20260905161449 64 222 1.7 3.5 0.00 0.00 0.00 78 1014.7
20260905160933 64 78 1.7 2.6 0.00 0.00 0.00 80 1014.6
20260905160420 63 55 1.7 3.5 0.00 0.00 0.00 81 1014.6
20260905155925 63 156 1.7 3.5 0.00 0.00 0.00 82 1014.6
20260905155430 62 212 1.7 4.3 0.00 0.00 0.00 83 1014.6
20260905154936 62 151 2.6 4.3 0.00 0.00 0.00 84 1014.6
20260905154421 61 177 1.7 3.5 0.00 0.00 0.00 84 1014.8
20260905153921 61 212 1.7 3.5 0.00 0.00 0.00 85 1014.8
20260905153427 61 177 1.7 4.3 0.00 0.00 0.00 85 1014.9
20260905152931 61 194 2.6 4.3 0.00 0.00 0.00 85 1014.8
20260905152433 61 228 1.7 4.3 0.00 0.00 0.00 85 1014.9
20260905151938 61 222 1.7 3.5 0.00 0.00 0.00 86 1014.8
20260905151452 60 107 0.9 3.5 0.00 0.00 0.00 86 1014.8
20260905150932 61 214 0.9 2.6 0.00 0.00 0.00 86 1014.8
20260905150434 60 158 0.9 2.6 0.00 0.00 0.00 87 1014.7
20260905145936 60 200 0.9 1.7 0.00 0.00 0.00 87 1014.7
20260905145419 59 123 0.9 0.9 0.00 0.00 0.00 87 1014.7
20260905144943 59 134 0.0 1.7 0.00 0.00 0.00 87 1014.6
20260905144427 59 62 0.9 1.7 0.00 0.00 0.00 87 1014.6
20260905143930 59 88 1.7 1.7 0.00 0.00 0.00 87 1014.7
20260905143430 58 97 0.9 1.7 0.00 0.00 0.00 87 1014.6
20260905142933 58 151 0.9 2.6 0.00 0.00 0.00 87 1014.6
20260905142449 58 208 1.7 2.6 0.00 0.00 0.00 87 1014.6
20260905141933 57 194 1.7 3.5 0.00 0.00 0.00 87 1014.6
20260905141439 57 177 1.7 4.3 0.00 0.00 0.00 87 1014.5
20260905140953 57 201 2.6 4.3 0.00 0.00 0.00 87 1014.5
20260905140418 57 208 2.6 4.3 0.00 0.00 0.00 87 1014.4
20260905135936 57 192 1.7 3.5 0.00 0.00 0.00 87 1014.4
20260905135422 57 205 1.7 3.5 0.00 0.00 0.00 87 1014.3
20260905134926 57 196 1.7 3.5 0.00 0.00 0.00 87 1014.2
20260905134433 57 192 1.7 3.5 0.00 0.00 0.00 87 1014.2
20260905133940 57 192 1.7 2.6 0.00 0.00 0.00 87 1014.2
20260905133424 57 205 0.9 1.7 0.00 0.00 0.00 87 1014.1
20260905132928 57 45 0.0 1.7 0.00 0.00 0.00 87 1014.1
20260905132436 57 196 0.9 3.5 0.00 0.00 0.00 87 1014.1
20260905131951 57 185 1.7 3.5 0.00 0.00 0.00 86 1014.1
20260905131434 57 177 0.9 3.5 0.00 0.00 0.00 86 1014.1
20260905130931 57 208 1.7 3.5 0.00 0.00 0.00 86 1014.1
20260905130418 57 193 1.7 3.5 0.00 0.00 0.00 86 1014.2
20260905125921 57 200 1.7 3.5 0.00 0.00 0.00 86 1014.2
20260905125424 57 222 0.0 1.7 0.00 0.00 0.00 86 1014.2
20260905124928 57 88 0.9 1.7 0.00 0.00 0.00 86 1014.3
20260905124434 57 222 0.9 1.7 0.00 0.00 0.00 86 1014.3
20260905123921 57 88 0.9 1.7 0.00 0.00 0.00 86 1014.3
20260905123446 57 116 0.9 2.6 0.00 0.00 0.00 86 1014.2
20260905122931 58 192 0.9 2.6 0.00 0.00 0.00 86 1014.2
20260905122436 58 201 1.7 2.6 0.00 0.00 0.00 86 1014.2
20260905121938 57 232 1.7 2.6 0.00 0.00 0.00 86 1014.2
20260905121453 58 210 1.7 2.6 0.00 0.00 0.00 86 1014.3
20260905120935 58 187 1.7 2.6 0.00 0.00 0.00 85 1014.3
20260905120420 58 218 1.7 1.7 0.00 0.00 0.00 85 1014.2
20260905115955 58 222 0.9 2.6 0.00 0.00 0.00 86 1014.3
20260905115440 58 120 1.7 2.6 0.00 0.00 0.00 86 1014.2
20260905114954 58 144 1.7 2.6 0.00 0.00 0.00 86 1014.3
20260905114446 58 125 1.7 2.6 0.00 0.00 0.00 85 1014.3
20260905113931 58 147 1.7 2.6 0.00 0.00 0.00 85 1014.3
20260905113419 58 134 2.6 3.5 0.00 0.00 0.00 85 1014.3
20260905112924 58 141 1.7 3.5 0.00 0.00 0.00 85 1014.3
20260905112431 58 155 1.7 2.6 0.00 0.00 0.00 85 1014.3
20260905111917 59 130 1.7 2.6 0.00 0.00 0.00 85 1014.4
20260905111425 59 45 0.9 2.6 0.00 0.00 0.00 85 1014.4
20260905110947 59 88 0.9 4.3 0.00 0.00 0.00 85 1014.4
20260905110434 59 218 0.9 4.3 0.00 0.00 0.00 85 1014.3
20260905105917 59 228 1.7 6.1 0.00 0.00 0.00 85 1014.3
20260905105423 59 247 3.5 6.1 0.00 0.00 0.00 85 1014.4
20260905104929 59 254 2.6 6.1 0.00 0.00 0.00 85 1014.3
20260905104418 59 258 1.7 2.6 0.00 0.00 0.00 85 1014.3
20260905103924 59 151 0.9 3.5 0.00 0.00 0.00 85 1014.3
20260905103428 59 116 2.6 3.5 0.00 0.00 0.00 85 1014.3
20260905102934 59 151 0.9 3.5 0.00 0.00 0.00 84 1014.3
20260905102419 59 339 1.7 3.5 0.00 0.00 0.00 84 1014.3
20260905101927 59 45 0.9 4.3 0.00 0.00 0.00 85 1014.4
20260905101432 59 285 1.7 7.0 0.00 0.00 0.00 85 1014.4
20260905100941 59 282 2.6 7.0 0.00 0.00 0.00 85 1014.4
20260905100458 60 214 1.7 7.8 0.00 0.00 0.00 84 1014.3
20260905095926 60 257 3.5 8.7 0.00 0.00 0.00 84 1014.3
20260905095431 60 273 4.3 8.7 0.00 0.00 0.00 84 1014.3
20260905094921 60 251 4.3 7.8 0.00 0.00 0.00 84 1014.3
20260905094427 60 282 4.3 7.8 0.00 0.00 0.00 84 1014.3
20260905093935 60 268 4.3 10.4 0.00 0.00 0.00 84 1014.2
20260905093421 60 258 5.2 10.4 0.00 0.00 0.00 84 1014.2
20260905092927 60 301 4.3 8.7 0.00 0.00 0.00 84 1014.3
20260905092435 60 261 3.5 7.8 0.00 0.00 0.00 84 1014.3
20260905091937 60 237 3.5 8.7 0.00 0.00 0.00 84 1014.4
20260905091424 60 232 5.2 10.4 0.00 0.00 0.00 85 1014.4
20260905090931 60 273 5.2 12.2 0.00 0.00 0.00 85 1014.4
20260905090418 60 256 7.0 12.2 0.00 0.00 0.00 85 1014.5
20260905085922 60 292 7.0 12.2 0.00 0.00 0.00 86 1014.4
20260905085431 60 271 7.0 12.2 0.00 0.00 0.00 86 1014.5
20260905084939 60 217 7.0 12.2 0.00 0.00 0.00 86 1014.5
20260905084450 60 282 7.0 13.0 0.00 0.00 0.00 86 1014.5
20260905083918 60 292 7.0 13.0 0.00 0.00 0.00 85 1014.5
20260905083446 60 268 7.0 13.0 0.00 0.00 0.00 85 1014.6
20260905082931 60 270 7.8 13.0 0.00 0.00 0.00 85 1014.5
20260905082438 60 289 7.8 13.9 0.00 0.00 0.00 85 1014.6
20260905081953 60 280 7.8 13.9 0.00 0.00 0.00 85 1014.6
20260905081417 60 268 7.8 14.8 0.00 0.00 0.00 85 1014.5
20260905080921 60 292 8.7 14.8 0.00 0.00 0.00 85 1014.4
20260905080427 60 218 7.0 13.9 0.00 0.00 0.00 85 1014.5
20260905075930 60 252 8.7 13.9 0.00 0.00 0.00 85 1014.4
20260905075418 60 238 7.8 13.0 0.00 0.00 0.00 84 1014.4
20260905074926 60 294 7.8 13.0 0.00 0.00 0.00 84 1014.5
20260905074431 60 254 6.1 13.0 0.00 0.00 0.00 83 1014.4
20260905073937 60 256 6.1 12.2 0.00 0.00 0.00 83 1014.3
20260905073428 60 237 6.1 12.2 0.00 0.00 0.00 82 1014.3
20260905072931 60 268 5.2 8.7 0.00 0.00 0.00 82 1014.2
20260905072435 60 268 4.3 8.7 0.00 0.00 0.00 81 1014.3
20260905071924 60 279 5.2 9.6 0.00 0.00 0.00 81 1014.3
20260905071429 61 275 5.2 9.6 0.00 0.00 0.00 80 1014.3
20260905070936 61 256 4.3 11.3 0.00 0.00 0.00 80 1014.3
20260905070449 61 247 6.1 11.3 0.00 0.00 0.00 80 1014.2
20260905065945 61 278 7.0 13.0 0.00 0.00 0.00 80 1014.2
20260905065434 61 249 7.0 13.0 0.00 0.00 0.00 79 1014.2
20260905064950 61 270 7.0 11.3 0.00 0.00 0.00 79 1014.2
20260905064417 61 252 6.1 10.4 0.00 0.00 0.00 78 1014.3
20260905063943 61 289 6.1 12.2 0.00 0.00 0.00 78 1014.3
20260905063429 61 287 6.1 13.0 0.00 0.00 0.00 78 1014.3
20260905062916 61 268 6.1 13.9 0.00 0.00 0.00 78 1014.3
20260905062420 61 280 9.6 15.6 0.00 0.00 0.00 78 1014.3
20260905061958 61 278 8.7 15.6 0.00 0.00 0.00 78 1014.2
20260905061453 61 271 7.0 11.3 0.00 0.00 0.00 78 1014.3
20260905060920 61 281 6.1 12.2 0.00 0.00 0.00 78 1014.2
20260905060428 61 276 7.0 12.2 0.00 0.00 0.00 79 1014.3
20260905055933 61 277 7.0 11.3 0.00 0.00 0.00 79 1014.3
20260905055421 61 280 5.2 11.3 0.00 0.00 0.00 79 1014.4
20260905054922 61 261 7.0 13.9 0.00 0.00 0.00 79 1014.4
20260905054428 61 261 7.8 13.9 0.00 0.00 0.00 79 1014.4
20260905053932 61 263 5.2 12.2 0.00 0.00 0.00 79 1014.5
20260905053422 61 251 7.8 12.2 0.00 0.00 0.00 79 1014.5
20260905052929 61 268 6.1 11.3 0.00 0.00 0.00 79 1014.6
20260905052417 61 229 7.8 11.3 0.00 0.00 0.00 79 1014.6
20260905051922 61 257 6.1 12.2 0.00 0.00 0.00 79 1014.7
20260905051423 61 292 5.2 12.2 0.00 0.00 0.00 78 1014.7
20260905050931 61 279 6.1 12.2 0.00 0.00 0.00 78 1014.8
20260905050437 61 282 5.2 10.4 0.00 0.00 0.00 77 1014.8
20260905045954 61 250 5.2 11.3 0.00 0.01 0.00 76 1014.8
20260905045422 61 242 6.1 11.3 0.00 0.01 0.00 75 1014.7
20260905044957 61 277 6.1 11.3 0.00 0.01 0.00 75 1014.8
20260905044422 62 275 6.1 12.2 0.00 0.01 0.00 74 1014.7
20260905043925 62 284 7.8 12.2 0.00 0.01 0.00 74 1014.7
20260905043434 62 270 7.8 14.8 0.00 0.01 0.00 73 1014.6
20260905042918 62 256 8.7 14.8 0.00 0.01 0.00 73 1014.6
20260905042424 62 289 7.8 14.8 0.00 0.01 0.00 74 1014.6
20260905041930 62 275 7.8 13.0 0.00 0.01 0.00 74 1014.6
20260905041435 62 289 7.8 14.8 0.00 0.01 0.00 75 1014.6
20260905040923 62 259 7.8 13.9 0.00 0.01 0.00 76 1014.5
20260905040430 62 276 8.7 15.6 0.00 0.01 0.00 76 1014.5
20260905035930 62 283 8.7 15.6 0.00 0.02 0.00 76 1014.3
20260905035436 62 268 9.6 13.9 0.00 0.02 0.00 76 1014.3
20260905034922 62 289 7.8 15.6 0.00 0.02 0.00 76 1014.3
20260905034429 62 277 8.7 15.6 0.00 0.02 0.00 77 1014.3
20260905033935 62 280 7.8 14.8 0.00 0.02 0.00 78 1014.2
20260905033423 62 287 8.7 14.8 0.00 0.02 0.00 79 1014.1
20260905032949 62 301 8.7 15.6 0.00 0.02 0.00 80 1014.1
20260905032432 62 304 10.4 14.8 0.00 0.02 0.00 80 1014.1
20260905031935 62 270 9.6 15.6 0.00 0.02 0.00 80 1014.1
20260905031420 62 284 9.6 17.4 0.00 0.02 0.00 80 1014.1
20260905030959 62 287 9.6 18.2 0.00 0.02 0.00 80 1014.0
20260905030449 62 268 10.4 17.4 0.00 0.02 0.00 80 1014.1
20260905025937 62 251 10.4 17.4 0.00 0.02 0.00 80 1014.1
20260905025441 62 251 11.3 17.4 0.00 0.02 0.00 80 1014.0
20260905024927 62 258 11.3 17.4 0.00 0.02 0.00 80 1013.9
20260905024434 62 282 10.4 17.4 0.00 0.02 0.00 79 1013.9
20260905023921 62 290 9.6 19.1 0.00 0.02 0.00 79 1014.0
20260905023447 62 268 12.2 18.2 0.00 0.02 0.00 78 1013.9
20260905022931 62 283 12.2 16.5 0.00 0.02 0.00 78 1013.8
20260905022418 63 282 9.6 19.1 0.00 0.02 0.00 78 1013.9
20260905021940 63 287 10.4 19.1 0.00 0.02 0.00 78 1013.9
20260905021454 63 261 13.0 20.9 0.00 0.02 0.00 78 1013.8
20260905020951 63 301 11.3 20.9 0.00 0.02 0.00 77 1013.9
20260905020435 63 283 11.3 20.9 0.00 0.02 0.00 77 1013.9
20260905015920 63 268 13.0 20.0 0.00 0.02 0.00 76 1014.0
20260905015427 64 280 11.3 19.1 0.00 0.02 0.00 75 1013.9
20260905014929 64 270 13.0 19.1 0.00 0.02 0.00 74 1013.9
20260905014417 64 296 13.0 19.1 0.00 0.02 0.00 74 1014.0
20260905013923 64 284 11.3 19.1 0.00 0.02 0.00 74 1014.0
20260905013430 64 276 11.3 18.2 0.00 0.02 0.00 74 1014.0
20260905012916 64 264 12.2 18.2 0.00 0.02 0.00 74 1014.0
20260905012424 64 275 12.2 19.1 0.00 0.02 0.00 73 1014.1
20260905011934 65 273 10.4 19.1 0.00 0.02 0.00 73 1014.0
20260905011420 65 301 10.4 18.2 0.00 0.02 0.00 72 1014.0
20260905010944 65 263 9.6 15.6 0.00 0.02 0.00 72 1014.1
20260905010431 65 265 11.3 20.0 0.00 0.02 0.00 72 1014.0
20260905005935 65 256 11.3 22.6 0.00 0.02 0.00 72 1013.9
20260905005421 65 307 11.3 22.6 0.00 0.02 0.00 71 1013.9
20260905004928 66 294 11.3 20.9 0.00 0.02 0.00 71 1014.0
20260905004435 66 264 8.7 20.0 0.00 0.02 0.00 69 1014.0
20260905003921 65 263 13.9 22.6 0.00 0.02 0.00 69 1013.9
20260905003423 66 294 14.8 22.6 0.00 0.02 0.00 70 1013.9
20260905002929 66 313 10.4 20.9 0.00 0.02 0.00 70 1013.9
20260905002436 66 277 13.0 21.7 0.00 0.02 0.00 70 1013.8
20260905001940 66 307 12.2 20.0 0.00 0.02 0.00 70 1013.9
20260905001425 66 292 10.4 20.0 0.00 0.02 0.00 71 1013.9
20260905000930 66 288 11.3 19.1 0.00 0.02 0.00 71 1013.9
20260905000435 66 257 11.3 19.1 0.00 0.02 0.00 70 1014.0
20260904235923 66 264 10.4 20.0 0.00 0.02 0.00 69 1014.1
20260904235430 66 262 13.0 20.0 0.00 0.02 0.00 69 1014.1
20260904234937 66 289 11.3 18.2 0.00 0.02 0.00 69 1014.0
20260904234452 66 277 9.6 18.2 0.00 0.02 0.00 69 1014.1
20260904233936 66 268 12.2 19.1 0.00 0.02 0.00 69 1014.1
20260904233423 67 285 10.4 18.2 0.00 0.02 0.00 69 1014.1
20260904232927 67 258 11.3 18.2 0.00 0.02 0.00 69 1014.1
20260904232428 67 270 8.7 22.6 0.00 0.02 0.00 69 1014.2
20260904231937 66 282 13.0 22.6 0.00 0.02 0.00 69 1014.1
20260904231425 67 282 10.4 19.1 0.00 0.02 0.00 69 1014.1
20260904230931 67 285 9.6 20.9 0.00 0.02 0.00 68 1014.2
20260904230435 67 280 10.4 20.9 0.00 0.02 0.00 68 1014.2
20260904225919 67 282 10.4 20.0 0.00 0.02 0.00 69 1014.3
20260904225425 67 285 10.4 22.6 0.00 0.02 0.00 70 1014.4
20260904224932 66 292 13.9 20.9 0.00 0.02 0.00 69 1014.2
20260904224432 67 321 13.9 20.0 0.00 0.02 0.00 69 1014.2
20260904223940 67 273 11.3 19.1 0.00 0.02 0.00 69 1014.4
20260904223426 67 292 11.3 20.0 0.00 0.02 0.00 69 1014.4
20260904222933 66 277 13.0 22.6 0.00 0.02 0.00 69 1014.3
20260904222438 67 282 13.0 22.6 0.00 0.02 0.00 70 1014.5
20260904221953 67 287 13.0 21.7 0.00 0.02 0.00 70 1014.6
20260904221436 67 282 10.4 23.5 0.00 0.02 0.00 70 1014.6
20260904220932 67 270 16.5 23.5 0.00 0.02 0.00 69 1014.6
20260904220418 68 301 10.4 20.9 0.00 0.02 0.00 69 1014.5
20260904215924 67 285 13.0 20.9 0.00 0.02 0.00 68 1014.5
20260904215433 68 235 8.7 19.1 0.00 0.02 0.00 68 1014.5
20260904214918 68 226 10.4 18.2 0.00 0.02 0.00 68 1014.5
20260904214425 68 253 8.7 16.5 0.00 0.02 0.00 69 1014.6
20260904213932 68 261 8.7 16.5 0.00 0.02 0.00 69 1014.6
20260904213436 67 278 7.8 14.8 0.00 0.02 0.00 69 1014.5
20260904212920 67 301 7.0 15.6 0.00 0.02 0.00 70 1014.7
20260904212428 67 310 9.6 15.6 0.00 0.02 0.00 69 1014.6
20260904211936 67 299 7.0 13.9 0.00 0.02 0.00 70 1014.7
20260904211423 67 252 6.1 15.6 0.00 0.02 0.00 71 1014.7
20260904210930 66 209 7.8 15.6 0.00 0.02 0.00 71 1014.8
20260904210418 67 220 7.8 13.9 0.00 0.02 0.00 71 1014.8
20260904205923 67 235 7.8 16.5 0.00 0.02 0.00 71 1014.8
20260904205424 66 258 7.0 17.4 0.00 0.02 0.00 71 1014.8
20260904204930 67 265 9.6 17.4 0.00 0.02 0.00 71 1014.8
20260904204435 67 292 8.7 16.5 0.00 0.02 0.00 71 1014.8
20260904203919 67 236 6.1 17.4 0.00 0.02 0.00 71 1014.7
20260904203427 67 261 7.8 15.6 0.00 0.02 0.00 71 1014.7
20260904202929 67 274 8.7 15.6 0.00 0.02 0.00 70 1014.7
20260904202425 67 330 8.7 15.6 0.00 0.02 0.00 70 1014.6
20260904201955 67 278 7.0 13.0 0.00 0.02 0.00 71 1014.6
20260904201420 67 270 7.8 12.2 0.00 0.02 0.00 70 1014.7
20260904200925 67 310 6.1 13.0 0.00 0.02 0.00 71 1014.7
20260904200431 67 284 7.8 13.9 0.00 0.02 0.00 70 1014.6
20260904195937 67 316 6.1 13.9 0.00 0.02 0.00 71 1014.7
20260904195421 67 287 7.0 12.2 0.00 0.02 0.00 71 1014.7
20260904194928 67 248 7.0 12.2 0.00 0.02 0.00 71 1014.7
20260904194432 67 236 5.2 12.2 0.00 0.02 0.00 71 1014.6